Hourly Data Report for January 21, 2019

TORONTO CITY
ONTARIO
Current Station Operator: ECCC - MSC

43°40'00.000" N
79°24'00.000" W
112.50 m
6158355
71508
XTO

Download Data

Hourly Data (January 2019)
Hourly Data Report for January 21, 2019
TIME
LST
Temp Definition
°C
Dew Point Definition
°C
Rel Hum Definition
%
Precip. Amount Definition
mm

Wind Dir Definition
10's deg

Wind Spd Definition
km/h
Visibility Definition
km
Stn Press Definition
kPa
Hmdx Definition


Wind Chill Definition


Weather Definition


00:00 -21.1 -28.9 50 0.0 LegendMM LegendMM   100.77     LegendNANA
01:00 -21.3 -29.0 50 0.0 LegendMM LegendMM   100.79     LegendNANA
02:00 -21.4 -28.7 52 0.0 LegendMM LegendMM   100.83     LegendNANA
03:00 -21.4 -28.3 53 0.0 LegendMM LegendMM   100.93     LegendNANA
04:00 -21.0 -27.7 55 0.0 LegendMM LegendMM   100.99     LegendNANA
05:00 -20.7 -27.6 54 0.0 LegendMM LegendMM   101.08     LegendNANA
06:00 -20.4 -27.4 53 0.0 LegendMM LegendMM   101.13     LegendNANA
07:00 -20.7 -27.7 53 0.0 LegendMM LegendMM   101.28     LegendNANA
08:00 -20.7 -28.0 52 0.0 LegendMM LegendMM   101.40     LegendNANA
09:00 -19.6 -27.7 49 0.0 LegendMM LegendMM   101.51     LegendNANA
10:00 -18.2 -25.5 53 0.0 LegendMM LegendMM   101.59     LegendNANA
11:00 -16.4 -24.5 49 0.0 LegendMM LegendMM   101.68     LegendNANA
12:00 -14.8 -22.5 52 0.0 LegendMM LegendMM   101.69     LegendNANA
13:00 -13.4 -20.9 53 0.0 LegendMM LegendMM   101.67     LegendNANA
14:00 -11.8 -20.8 47 0.0 LegendMM LegendMM   101.65     LegendNANA
15:00 -11.2 -19.6 50 0.0 LegendMM LegendMM   101.68     LegendNANA
16:00 -11.3 -19.2 52 0.0 LegendMM LegendMM   101.75     LegendNANA
17:00 -11.4 -19.1 53 0.0 LegendMM LegendMM   101.80     LegendNANA
18:00 -12.1 -19.4 54 0.0 LegendMM LegendMM   101.87     LegendNANA
19:00 -12.0 -20.0 51 0.0 LegendMM LegendMM   101.93     LegendNANA
20:00 -12.6 -19.8 55 0.0 LegendMM LegendMM   101.95     LegendNANA
21:00 -12.6 -18.8 60 0.0 LegendMM LegendMM   102.01     LegendNANA
22:00 -12.9 -18.5 63 0.0 LegendMM LegendMM   102.01     LegendNANA
23:00 -13.4 -18.3 66 0.0 LegendMM LegendMM   102.07     LegendNANA

Notes on Data Quality.

Legend

  • E = Estimated
  • M = Missing
  • NA = Not Available*
  • [empty] = Indicates an unobserved value
Date modified: